AUA1109 LOWW-LIPZ

Flight info

Callsign AUA1109
Flight time N/A
Altitude 34000
Route RUPET2D RUPET DCT GRZ DCT RADLY DCT OGODI DCT RIFEN/N0440F330 DCT BADOP DCT ROSKA/N0367F190 P125 TULIK Z71 BASOG BASOG2E
Aircraft A320/M-V/N

Departure

Time 2026-04-30 19:30
Airport Vienna International Airport (LOWW)

Arrival

Time N/A
Airport Venice Marco Polo Airport (LIPZ)
Time Latitude Longitude Altitude Speed Heading
2026-04-30 19:15 48.11808 16.57041 611 ft 0 kts 205°
2026-04-30 19:24 48.11826 16.57054 627 ft 4 kts 208°
2026-04-30 19:24 48.11871 16.57081 619 ft 4 kts 148°
2026-04-30 19:25 48.11876 16.57077 618 ft 0 kts 116°
2026-04-30 19:27 48.11856 16.57210 611 ft 9 kts 97°
2026-04-30 19:27 48.11828 16.57499 611 ft 17 kts 76°
2026-04-30 19:28 48.11851 16.57618 615 ft 3 kts 73°
2026-04-30 19:28 48.11857 16.57661 611 ft 3 kts 78°
2026-04-30 19:29 48.11779 16.57900 617 ft 24 kts 161°
2026-04-30 19:29 48.11533 16.58009 613 ft 62 kts 164°
2026-04-30 19:30 48.08809 16.59170 1298 ft 164 kts 163°
2026-04-30 19:30 48.06559 16.60100 2376 ft 180 kts 166°
2026-04-30 19:31 48.03924 16.58866 2809 ft 232 kts 233°
2026-04-30 19:31 48.02909 16.56824 3076 ft 260 kts 231°
2026-04-30 19:31 48.00225 16.52858 4678 ft 276 kts 225°
2026-04-30 19:32 47.98799 16.50897 5540 ft 281 kts 224°
2026-04-30 19:32 47.97378 16.48936 6444 ft 284 kts 224°
2026-04-30 19:32 47.95933 16.46910 7281 ft 287 kts 225°
2026-04-30 19:32 47.94460 16.44814 8111 ft 291 kts 225°
2026-04-30 19:33 47.93010 16.42735 8917 ft 295 kts 225°
2026-04-30 19:33 47.91522 16.40597 9724 ft 300 kts 225°
2026-04-30 19:33 47.90011 16.38419 10508 ft 305 kts 225°
2026-04-30 19:33 47.88439 16.36148 10827 ft 327 kts 225°
2026-04-30 19:34 47.86747 16.33706 11059 ft 349 kts 224°
2026-04-30 19:34 47.84972 16.31155 11573 ft 359 kts 224°
2026-04-30 19:34 47.81312 16.25907 12938 ft 370 kts 224°
2026-04-30 19:35 47.79445 16.23230 13633 ft 375 kts 224°
2026-04-30 19:35 47.77555 16.20520 14271 ft 380 kts 224°
2026-04-30 19:35 47.75637 16.17766 14855 ft 386 kts 224°
2026-04-30 19:35 47.73697 16.14990 15463 ft 390 kts 224°
2026-04-30 19:36 47.71732 16.12191 16069 ft 394 kts 224°
2026-04-30 19:36 47.69743 16.09363 16667 ft 398 kts 224°
2026-04-30 19:36 47.65711 16.03622 17874 ft 406 kts 224°
2026-04-30 19:37 47.63666 16.00711 18470 ft 410 kts 224°
2026-04-30 19:37 47.61601 15.97777 19011 ft 413 kts 224°
2026-04-30 19:37 47.59510 15.94813 19529 ft 417 kts 224°
2026-04-30 19:37 47.57401 15.91827 20068 ft 421 kts 224°
2026-04-30 19:38 47.55277 15.88821 20582 ft 425 kts 224°
2026-04-30 19:38 47.53127 15.85785 21105 ft 428 kts 224°
2026-04-30 19:38 47.50965 15.82732 21640 ft 432 kts 224°
2026-04-30 19:38 47.48783 15.79654 22141 ft 435 kts 224°
2026-04-30 19:39 47.46580 15.76554 22633 ft 439 kts 224°
2026-04-30 19:39 47.44357 15.73432 23111 ft 443 kts 224°
2026-04-30 19:39 47.42116 15.70287 23571 ft 446 kts 224°
2026-04-30 19:39 47.39856 15.67117 23999 ft 450 kts 224°
2026-04-30 19:40 47.37578 15.63927 24376 ft 453 kts 224°
2026-04-30 19:40 47.35282 15.60719 24767 ft 455 kts 224°
2026-04-30 19:40 47.32975 15.57501 25168 ft 457 kts 224°
2026-04-30 19:40 47.30660 15.54274 25522 ft 460 kts 224°
2026-04-30 19:41 47.28329 15.51027 25868 ft 462 kts 224°
2026-04-30 19:41 47.25987 15.47761 26165 ft 465 kts 224°
2026-04-30 19:41 47.23628 15.44475 26463 ft 469 kts 224°
2026-04-30 19:41 47.21244 15.41163 26791 ft 472 kts 224°
2026-04-30 19:42 47.18848 15.37841 27144 ft 475 kts 224°
2026-04-30 19:42 47.16437 15.34505 27488 ft 477 kts 224°
2026-04-30 19:42 47.14017 15.31163 27830 ft 479 kts 224°
2026-04-30 19:42 47.11585 15.27809 28160 ft 481 kts 223°
2026-04-30 19:43 47.09137 15.24433 28486 ft 484 kts 223°
2026-04-30 19:43 47.07477 15.22146 28692 ft 486 kts 223°
2026-04-30 19:43 47.04203 15.17642 29089 ft 489 kts 223°
2026-04-30 19:44 47.00031 15.11911 29607 ft 493 kts 224°
2026-04-30 19:44 46.98374 15.09637 29823 ft 493 kts 224°
2026-04-30 19:44 46.95018 15.05036 30223 ft 495 kts 224°
2026-04-30 19:44 46.92493 15.01586 30478 ft 497 kts 223°
2026-04-30 19:45 46.89992 14.98181 30690 ft 499 kts 223°
2026-04-30 19:45 46.87720 14.95091 30865 ft 501 kts 223°
2026-04-30 19:45 46.85337 14.91851 31034 ft 502 kts 223°
2026-04-30 19:45 46.82808 14.88414 31228 ft 503 kts 224°
2026-04-30 19:46 46.80255 14.84942 31570 ft 500 kts 224°
2026-04-30 19:46 46.77713 14.81490 31906 ft 498 kts 224°
2026-04-30 19:46 46.75180 14.78054 32152 ft 498 kts 224°
2026-04-30 19:46 46.72635 14.74607 32333 ft 500 kts 224°
2026-04-30 19:47 46.70083 14.71151 32524 ft 502 kts 224°
2026-04-30 19:47 46.67520 14.67683 32780 ft 503 kts 224°
2026-04-30 19:47 46.64953 14.64225 33047 ft 503 kts 224°
2026-04-30 19:47 46.62393 14.60790 33428 ft 499 kts 224°
2026-04-30 19:48 46.59849 14.57385 33802 ft 496 kts 224°
2026-04-30 19:48 46.57310 14.53990 34110 ft 495 kts 224°
2026-04-30 19:48 46.54779 14.50599 34329 ft 495 kts 224°
2026-04-30 19:49 46.50342 14.44665 34375 ft 491 kts 224°